Tracking 29493 objects as of 8-Sep-2024
HD Live streaming from Space Station
objects crossing your sky now

STARLINK-31502

Track STARLINK-31502 now!
10-day predictions
STARLINK-31502 is classified as:


NORAD ID: 59301
Int'l Code: 2024-056F
Perigee: 449.5 km
Apogee: 452.8 km
Inclination: 43.0 °
Period: 93.5 minutes
Semi major axis: 6822 km
RCS: Unknown
Launch date: March 24, 2024
Source: United States (US)
Launch site: AIR FORCE EASTERN TEST RANGE (AFETR)
Your satellite tracking list
Your tracking list is empty




NASA's NSSDC Master Catalog

Two Line Element Set (TLE):
1 59301U 24056F   24251.99131138  .00000353  00000-0  15717-4 0  9990
2 59301  43.0010 109.5503 0002391 264.3422  95.7162 15.40700836 26832
Source of the keplerian elements: AFSPC